| time (UTC) | temp C | wind direction | speed KPH | gust KPH | rain 1hr cm | rain 24hr cm | rain mn cm | humidity % | barometer mb |
| 20260902034416 | 16 | 63 | 0.0 | 0.0 | 0.00 | 0.00 | 0.00 | 76 | 1017.0 |
| 20260902033915 | 16 | 63 | 0.0 | 0.0 | 0.00 | 0.00 | 0.00 | 76 | 1017.0 |
| 20260902033415 | 16 | 63 | 0.0 | 0.0 | 0.00 | 0.00 | 0.00 | 76 | 1017.0 |
| 20260902032915 | 16 | 63 | 0.0 | 0.0 | 0.00 | 0.00 | 0.00 | 76 | 1017.0 |
| 20260902032414 | 16 | 63 | 0.0 | 0.0 | 0.00 | 0.00 | 0.00 | 76 | 1016.9 |
| 20260902031914 | 16 | 63 | 0.0 | 0.0 | 0.00 | 0.00 | 0.00 | 76 | 1016.9 |
| 20260902031414 | 16 | 63 | 0.0 | 0.0 | 0.00 | 0.00 | 0.00 | 76 | 1017.0 |
| 20260902030914 | 17 | 63 | 0.0 | 0.0 | 0.00 | 0.00 | 0.00 | 75 | 1016.9 |
| 20260902030413 | 16 | 63 | 0.0 | 0.0 | 0.00 | 0.00 | 0.00 | 75 | 1017.0 |
| 20260902025913 | 17 | 63 | 0.0 | 0.0 | 0.00 | 0.00 | 0.00 | 75 | 1017.0 |
| 20260902025413 | 16 | 63 | 0.0 | 0.0 | 0.00 | 0.00 | 0.00 | 75 | 1016.9 |
| 20260902024912 | 16 | 63 | 0.0 | 0.0 | 0.00 | 0.00 | 0.00 | 75 | 1017.1 |
| 20260902024412 | 16 | 63 | 0.0 | 0.0 | 0.00 | 0.00 | 0.00 | 75 | 1017.1 |
| 20260902023912 | 16 | 63 | 0.0 | 0.0 | 0.00 | 0.00 | 0.00 | 75 | 1017.0 |
| 20260902023412 | 17 | 63 | 0.0 | 0.0 | 0.00 | 0.00 | 0.00 | 75 | 1017.1 |
| 20260902022911 | 17 | 63 | 0.0 | 0.0 | 0.00 | 0.00 | 0.00 | 74 | 1017.2 |
| 20260902022411 | 17 | 63 | 0.0 | 0.0 | 0.00 | 0.00 | 0.00 | 74 | 1017.1 |
| 20260902021911 | 17 | 63 | 0.0 | 0.0 | 0.00 | 0.00 | 0.00 | 74 | 1017.0 |
| 20260902021410 | 17 | 63 | 0.0 | 0.0 | 0.00 | 0.00 | 0.00 | 74 | 1017.0 |
| 20260902020910 | 17 | 63 | 0.0 | 0.0 | 0.00 | 0.00 | 0.00 | 74 | 1017.0 |
| 20260902020410 | 17 | 63 | 0.0 | 0.0 | 0.00 | 0.00 | 0.00 | 74 | 1017.0 |
| 20260902015910 | 17 | 63 | 0.0 | 0.0 | 0.00 | 0.00 | 0.00 | 74 | 1017.0 |
| 20260902015409 | 17 | 63 | 0.0 | 0.0 | 0.00 | 0.00 | 0.00 | 73 | 1017.0 |
| 20260902014909 | 17 | 63 | 0.0 | 0.0 | 0.00 | 0.00 | 0.00 | 73 | 1017.0 |
| 20260902014409 | 17 | 63 | 0.0 | 0.0 | 0.00 | 0.00 | 0.00 | 73 | 1017.1 |
| 20260902013908 | 17 | 63 | 0.0 | 0.0 | 0.00 | 0.00 | 0.00 | 73 | 1017.1 |
| 20260902013408 | 17 | 63 | 0.0 | 0.0 | 0.00 | 0.00 | 0.00 | 73 | 1017.1 |
| 20260902012908 | 17 | 63 | 0.0 | 0.0 | 0.00 | 0.00 | 0.00 | 73 | 1017.1 |
| 20260902012408 | 17 | 63 | 0.0 | 0.0 | 0.00 | 0.00 | 0.00 | 73 | 1017.1 |
| 20260902011907 | 17 | 63 | 0.0 | 0.0 | 0.00 | 0.00 | 0.00 | 73 | 1017.0 |
| 20260902011407 | 17 | 63 | 0.0 | 0.0 | 0.00 | 0.00 | 0.00 | 73 | 1017.0 |
| 20260902010907 | 17 | 63 | 0.0 | 0.0 | 0.00 | 0.00 | 0.00 | 72 | 1017.0 |
| 20260902010407 | 17 | 63 | 0.0 | 0.0 | 0.00 | 0.00 | 0.00 | 72 | 1017.1 |
| 20260902005906 | 17 | 63 | 0.0 | 0.0 | 0.00 | 0.00 | 0.00 | 72 | 1017.1 |
| 20260902005406 | 17 | 71 | 0.0 | 0.0 | 0.00 | 0.00 | 0.00 | 72 | 1017.2 |
| 20260902004906 | 17 | 71 | 0.0 | 0.0 | 0.00 | 0.00 | 0.00 | 72 | 1017.1 |
| 20260902004405 | 17 | 71 | 0.0 | 0.0 | 0.00 | 0.00 | 0.00 | 72 | 1017.1 |
| 20260902003905 | 18 | 71 | 0.0 | 0.0 | 0.00 | 0.00 | 0.00 | 72 | 1017.1 |
| 20260902003405 | 18 | 71 | 0.0 | 1.6 | 0.00 | 0.00 | 0.00 | 71 | 1017.1 |
| 20260902002905 | 18 | 109 | 0.0 | 1.6 | 0.00 | 0.00 | 0.00 | 71 | 1017.2 |
| 20260902002404 | 18 | 192 | 0.0 | 0.0 | 0.00 | 0.00 | 0.00 | 71 | 1017.3 |
| 20260902001904 | 18 | 192 | 0.0 | 0.0 | 0.00 | 0.00 | 0.00 | 71 | 1017.3 |
| 20260902001404 | 18 | 192 | 0.0 | 0.0 | 0.00 | 0.00 | 0.00 | 71 | 1017.4 |
| 20260902000903 | 18 | 192 | 0.0 | 0.0 | 0.00 | 0.00 | 0.00 | 71 | 1017.5 |
| 20260902000403 | 18 | 192 | 0.0 | 0.0 | 0.00 | 0.00 | 0.00 | 71 | 1017.5 |
| 20260901235903 | 18 | 192 | 0.0 | 0.0 | 0.00 | 0.00 | 0.00 | 71 | 1017.5 |
| 20260901235403 | 18 | 192 | 0.0 | 0.0 | 0.00 | 0.00 | 0.00 | 71 | 1017.6 |
| 20260901234902 | 18 | 192 | 0.0 | 0.0 | 0.00 | 0.00 | 0.00 | 71 | 1017.5 |
| 20260901234402 | 18 | 192 | 0.0 | 0.0 | 0.00 | 0.00 | 0.00 | 71 | 1017.5 |
| 20260901233902 | 18 | 192 | 0.0 | 0.0 | 0.00 | 0.00 | 0.00 | 71 | 1017.5 |
| 20260901233401 | 18 | 192 | 0.0 | 0.0 | 0.00 | 0.00 | 0.00 | 70 | 1017.5 |
| 20260901232901 | 18 | 192 | 0.0 | 0.0 | 0.00 | 0.00 | 0.00 | 70 | 1017.5 |
| 20260901232401 | 18 | 192 | 0.0 | 0.0 | 0.00 | 0.00 | 0.00 | 70 | 1017.5 |
| 20260901231901 | 18 | 192 | 0.0 | 0.0 | 0.00 | 0.00 | 0.00 | 70 | 1017.5 |
| 20260901231400 | 18 | 192 | 0.0 | 0.0 | 0.00 | 0.00 | 0.00 | 70 | 1017.5 |
| 20260901230900 | 18 | 192 | 0.0 | 0.0 | 0.00 | 0.00 | 0.00 | 70 | 1017.5 |
| 20260901230400 | 18 | 192 | 0.0 | 0.0 | 0.00 | 0.00 | 0.00 | 69 | 1017.5 |
| 20260901225859 | 18 | 192 | 0.0 | 0.0 | 0.00 | 0.00 | 0.00 | 69 | 1017.4 |
| 20260901225359 | 19 | 192 | 0.0 | 0.0 | 0.00 | 0.00 | 0.00 | 69 | 1017.4 |
| 20260901224859 | 19 | 192 | 0.0 | 0.0 | 0.00 | 0.00 | 0.00 | 69 | 1017.5 |
| 20260901224359 | 18 | 192 | 0.0 | 0.0 | 0.00 | 0.00 | 0.00 | 69 | 1017.5 |
| 20260901223858 | 18 | 192 | 0.0 | 0.0 | 0.00 | 0.00 | 0.00 | 68 | 1017.4 |
| 20260901223358 | 18 | 192 | 0.0 | 0.0 | 0.00 | 0.00 | 0.00 | 68 | 1017.4 |
| 20260901222858 | 19 | 192 | 0.0 | 0.0 | 0.00 | 0.00 | 0.00 | 68 | 1017.4 |
| 20260901222357 | 19 | 192 | 0.0 | 0.0 | 0.00 | 0.00 | 0.00 | 68 | 1017.4 |
| 20260901221857 | 19 | 192 | 0.0 | 0.0 | 0.00 | 0.00 | 0.00 | 67 | 1017.4 |
| 20260901221357 | 19 | 192 | 0.0 | 0.0 | 0.00 | 0.00 | 0.00 | 67 | 1017.4 |
| 20260901220857 | 20 | 144 | 0.0 | 1.6 | 0.00 | 0.00 | 0.00 | 67 | 1017.5 |
| 20260901220356 | 20 | 47 | 0.0 | 0.0 | 0.00 | 0.00 | 0.00 | 66 | 1017.4 |
| 20260901215856 | 20 | 47 | 0.0 | 0.0 | 0.00 | 0.00 | 0.00 | 66 | 1017.4 |
| 20260901215356 | 20 | 47 | 0.0 | 0.0 | 0.00 | 0.00 | 0.00 | 66 | 1017.4 |
| 20260901214855 | 20 | 47 | 0.0 | 0.0 | 0.00 | 0.00 | 0.00 | 65 | 1017.3 |
| 20260901214355 | 20 | 47 | 0.0 | 0.0 | 0.00 | 0.00 | 0.00 | 65 | 1017.3 |
| 20260901213855 | 20 | 47 | 0.0 | 0.0 | 0.00 | 0.00 | 0.00 | 64 | 1017.3 |
| 20260901213355 | 20 | 47 | 0.0 | 0.0 | 0.00 | 0.00 | 0.00 | 64 | 1017.2 |
| 20260901212854 | 20 | 47 | 0.0 | 0.0 | 0.00 | 0.00 | 0.00 | 64 | 1017.2 |
| 20260901212354 | 20 | 47 | 0.0 | 0.0 | 0.00 | 0.00 | 0.00 | 63 | 1017.2 |
| 20260901211854 | 20 | 47 | 0.0 | 0.0 | 0.00 | 0.00 | 0.00 | 63 | 1017.1 |
| 20260901211353 | 20 | 47 | 0.0 | 0.0 | 0.00 | 0.00 | 0.00 | 63 | 1017.1 |
| 20260901210853 | 20 | 47 | 0.0 | 0.0 | 0.00 | 0.00 | 0.00 | 62 | 1017.1 |
| 20260901210353 | 20 | 47 | 0.0 | 0.0 | 0.00 | 0.00 | 0.00 | 62 | 1017.1 |
| 20260901205853 | 20 | 47 | 0.0 | 0.0 | 0.00 | 0.00 | 0.00 | 61 | 1017.1 |
| 20260901205352 | 21 | 47 | 0.0 | 0.0 | 0.00 | 0.00 | 0.00 | 61 | 1017.1 |
| 20260901204852 | 21 | 47 | 0.0 | 0.0 | 0.00 | 0.00 | 0.00 | 60 | 1017.2 |
| 20260901204352 | 21 | 47 | 0.0 | 0.0 | 0.00 | 0.00 | 0.00 | 60 | 1017.2 |
| 20260901203852 | 21 | 47 | 0.0 | 0.0 | 0.00 | 0.00 | 0.00 | 60 | 1017.2 |
| 20260901203352 | 21 | 47 | 0.0 | 0.0 | 0.00 | 0.00 | 0.00 | 59 | 1017.1 |
| 20260901202851 | 21 | 47 | 0.0 | 0.0 | 0.00 | 0.00 | 0.00 | 59 | 1017.2 |
| 20260901202351 | 21 | 47 | 0.0 | 0.0 | 0.00 | 0.00 | 0.00 | 59 | 1017.2 |
| 20260901201850 | 21 | 47 | 0.0 | 0.0 | 0.00 | 0.00 | 0.00 | 58 | 1017.2 |
| 20260901201350 | 21 | 47 | 0.0 | 0.0 | 0.00 | 0.00 | 0.00 | 57 | 1017.1 |
| 20260901200850 | 21 | 47 | 0.0 | 0.0 | 0.00 | 0.00 | 0.00 | 56 | 1017.1 |
| 20260901200349 | 21 | 47 | 0.0 | 0.0 | 0.00 | 0.00 | 0.00 | 56 | 1017.1 |
| 20260901195849 | 21 | 47 | 0.0 | 0.0 | 0.00 | 0.00 | 0.00 | 55 | 1017.2 |
| 20260901195349 | 22 | 47 | 0.0 | 0.0 | 0.00 | 0.00 | 0.00 | 54 | 1017.2 |
| 20260901194849 | 22 | 47 | 0.0 | 0.0 | 0.00 | 0.00 | 0.00 | 53 | 1017.1 |
| 20260901194348 | 22 | 47 | 0.0 | 0.0 | 0.00 | 0.00 | 0.00 | 53 | 1017.1 |
| 20260901193848 | 22 | 47 | 0.0 | 0.0 | 0.00 | 0.00 | 0.00 | 51 | 1017.0 |
| 20260901193348 | 22 | 47 | 0.0 | 0.0 | 0.00 | 0.00 | 0.00 | 51 | 1017.0 |
| 20260901192848 | 22 | 47 | 0.0 | 0.0 | 0.00 | 0.00 | 0.00 | 50 | 1016.9 |
| 20260901192347 | 22 | 47 | 0.0 | 0.0 | 0.00 | 0.00 | 0.00 | 49 | 1016.8 |
| 20260901191847 | 23 | 47 | 0.0 | 0.0 | 0.00 | 0.00 | 0.00 | 49 | 1016.8 |
| 20260901191347 | 22 | 47 | 0.0 | 0.0 | 0.00 | 0.00 | 0.00 | 48 | 1016.8 |
| 20260901190846 | 23 | 47 | 0.0 | 0.0 | 0.00 | 0.00 | 0.00 | 47 | 1016.8 |
| 20260901190346 | 23 | 47 | 0.0 | 0.0 | 0.00 | 0.00 | 0.00 | 47 | 1016.8 |
| 20260901185846 | 23 | 47 | 0.0 | 0.0 | 0.00 | 0.00 | 0.00 | 46 | 1016.7 |
| 20260901185346 | 23 | 47 | 0.0 | 0.0 | 0.00 | 0.00 | 0.00 | 46 | 1016.7 |
| 20260901184845 | 23 | 47 | 0.0 | 0.0 | 0.00 | 0.00 | 0.00 | 45 | 1016.6 |
| 20260901184345 | 23 | 47 | 0.0 | 0.0 | 0.00 | 0.00 | 0.00 | 45 | 1016.4 |
| 20260901183845 | 23 | 47 | 0.0 | 0.0 | 0.00 | 0.00 | 0.00 | 44 | 1016.4 |
| 20260901183344 | 24 | 47 | 0.0 | 0.0 | 0.00 | 0.00 | 0.00 | 43 | 1016.3 |
| 20260901182844 | 23 | 47 | 0.0 | 0.0 | 0.00 | 0.00 | 0.00 | 43 | 1016.2 |
| 20260901182344 | 23 | 47 | 0.0 | 0.0 | 0.00 | 0.00 | 0.00 | 42 | 1016.2 |
| 20260901181844 | 24 | 47 | 0.0 | 0.0 | 0.00 | 0.00 | 0.00 | 42 | 1016.2 |
| 20260901181343 | 24 | 47 | 0.0 | 1.6 | 0.00 | 0.00 | 0.00 | 42 | 1016.1 |
| 20260901180843 | 24 | 60 | 0.0 | 1.6 | 0.00 | 0.00 | 0.00 | 41 | 1016.1 |
| 20260901180343 | 24 | 32 | 0.0 | 0.0 | 0.00 | 0.00 | 0.00 | 41 | 1016.1 |
| 20260901175842 | 25 | 32 | 0.0 | 0.0 | 0.00 | 0.00 | 0.00 | 40 | 1016.0 |
| 20260901175342 | 25 | 32 | 0.0 | 0.0 | 0.00 | 0.00 | 0.00 | 40 | 1016.0 |
| 20260901174842 | 25 | 32 | 0.0 | 0.0 | 0.00 | 0.00 | 0.00 | 40 | 1016.0 |
| 20260901174342 | 25 | 32 | 0.0 | 4.8 | 0.00 | 0.00 | 0.00 | 39 | 1016.0 |
| 20260901173841 | 25 | 56 | 0.0 | 1.6 | 0.00 | 0.00 | 0.00 | 39 | 1016.0 |
| 20260901173341 | 25 | 42 | 0.0 | 6.4 | 0.00 | 0.00 | 0.00 | 38 | 1016.1 |
| 20260901172841 | 25 | 39 | 0.0 | 3.2 | 0.00 | 0.00 | 0.00 | 38 | 1016.0 |
| 20260901172340 | 25 | 15 | 0.0 | 3.2 | 0.00 | 0.00 | 0.00 | 37 | 1016.0 |
| 20260901171840 | 26 | 85 | 1.6 | 4.8 | 0.00 | 0.00 | 0.00 | 36 | 1016.0 |
| 20260901171340 | 26 | 70 | 0.0 | 3.2 | 0.00 | 0.00 | 0.00 | 36 | 1016.0 |
| 20260901170840 | 26 | 42 | 0.0 | 4.8 | 0.00 | 0.00 | 0.00 | 35 | 1016.1 |
| 20260901170339 | 26 | 94 | 3.2 | 9.7 | 0.00 | 0.00 | 0.00 | 34 | 1016.0 |
| 20260901165839 | 26 | 63 | 0.0 | 4.8 | 0.00 | 0.00 | 0.00 | 33 | 1016.0 |
| 20260901165339 | 27 | 347 | 0.0 | 8.0 | 0.00 | 0.00 | 0.00 | 33 | 1016.0 |
| 20260901164838 | 27 | 50 | 0.0 | 8.0 | 0.00 | 0.00 | 0.00 | 32 | 1016.0 |
| 20260901164338 | 27 | 333 | 0.0 | 4.8 | 0.00 | 0.00 | 0.00 | 32 | 1016.0 |
| 20260901163838 | 27 | 108 | 1.6 | 6.4 | 0.00 | 0.00 | 0.00 | 32 | 1016.1 |
| 20260901163338 | 28 | 357 | 0.0 | 9.7 | 0.00 | 0.00 | 0.00 | 31 | 1016.0 |
| 20260901162837 | 28 | 118 | 1.6 | 4.8 | 0.00 | 0.00 | 0.00 | 31 | 1016.0 |
| 20260901162337 | 28 | 98 | 1.6 | 11.3 | 0.00 | 0.00 | 0.00 | 31 | 1015.9 |
| 20260901161837 | 28 | 154 | 3.2 | 9.7 | 0.00 | 0.00 | 0.00 | 30 | 1016.0 |
| 20260901161336 | 28 | 122 | 4.8 | 11.3 | 0.00 | 0.00 | 0.00 | 30 | 1016.0 |
| 20260901160836 | 28 | 64 | 3.2 | 9.7 | 0.00 | 0.00 | 0.00 | 30 | 1015.9 |
| 20260901160336 | 28 | 36 | 1.6 | 11.3 | 0.00 | 0.00 | 0.00 | 31 | 1016.0 |
| 20260901155836 | 28 | 123 | 0.0 | 9.7 | 0.00 | 0.00 | 0.00 | 31 | 1015.9 |
| 20260901155335 | 28 | 40 | 3.2 | 12.9 | 0.00 | 0.00 | 0.00 | 30 | 1016.0 |
| 20260901154835 | 28 | 63 | 8.0 | 19.3 | 0.00 | 0.00 | 0.00 | 29 | 1015.9 |
| 20260901154335 | 28 | 80 | 0.0 | 4.8 | 0.00 | 0.00 | 0.00 | 31 | 1015.8 |
| 20260901153835 | 28 | 347 | 1.6 | 6.4 | 0.00 | 0.00 | 0.00 | 33 | 1016.0 |
| 20260901153334 | 27 | 122 | 0.0 | 4.8 | 0.00 | 0.00 | 0.00 | 34 | 1016.0 |
| 20260901152834 | 26 | 351 | 0.0 | 8.0 | 0.00 | 0.00 | 0.00 | 36 | 1016.0 |
| 20260901152334 | 26 | 299 | 3.2 | 9.7 | 0.00 | 0.00 | 0.00 | 36 | 1016.0 |
| 20260901151833 | 26 | 105 | 3.2 | 9.7 | 0.00 | 0.00 | 0.00 | 36 | 1016.0 |
| 20260901151333 | 26 | 213 | 0.0 | 14.5 | 0.00 | 0.00 | 0.00 | 35 | 1016.0 |
| 20260901150833 | 27 | 344 | 0.0 | 11.3 | 0.00 | 0.00 | 0.00 | 34 | 1015.9 |
| 20260901150333 | 27 | 8 | 0.0 | 8.0 | 0.00 | 0.00 | 0.00 | 33 | 1015.9 |
| 20260901145832 | 28 | 119 | 1.6 | 12.9 | 0.00 | 0.00 | 0.00 | 31 | 1015.9 |
| 20260901145332 | 27 | 126 | 6.4 | 11.3 | 0.00 | 0.00 | 0.00 | 33 | 1015.9 |
| 20260901144832 | 26 | 56 | 0.0 | 6.4 | 0.00 | 0.00 | 0.00 | 34 | 1015.9 |
| 20260901144331 | 27 | 331 | 3.2 | 6.4 | 0.00 | 0.03 | 0.00 | 34 | 1015.9 |
| 20260901143831 | 28 | 90 | 3.2 | 9.7 | 0.00 | 0.03 | 0.00 | 33 | 1015.9 |
| 20260901143331 | 28 | 82 | 6.4 | 12.9 | 0.00 | 0.03 | 0.00 | 31 | 1016.0 |
| 20260901142831 | 28 | 1 | 4.8 | 12.9 | 0.00 | 0.03 | 0.00 | 32 | 1015.9 |
| 20260901142330 | 27 | 73 | 4.8 | 6.4 | 0.00 | 0.03 | 0.00 | 34 | 1015.9 |
| 20260901141830 | 27 | 29 | 1.6 | 6.4 | 0.00 | 0.03 | 0.00 | 34 | 1016.0 |
| 20260901141330 | 27 | 8 | 1.6 | 11.3 | 0.00 | 0.03 | 0.00 | 35 | 1016.1 |
| 20260901140829 | 27 | 73 | 4.8 | 9.7 | 0.00 | 0.03 | 0.00 | 36 | 1016.1 |
| 20260901140329 | 27 | 56 | 3.2 | 11.3 | 0.00 | 0.03 | 0.00 | 35 | 1016.1 |
| 20260901135829 | 27 | 99 | 6.4 | 11.3 | 0.00 | 0.03 | 0.00 | 35 | 1016.2 |
| 20260901135329 | 27 | 151 | 1.6 | 9.7 | 0.00 | 0.03 | 0.00 | 35 | 1016.2 |
| 20260901134828 | 27 | 25 | 3.2 | 16.1 | 0.00 | 0.03 | 0.00 | 35 | 1016.2 |
| 20260901134328 | 27 | 49 | 0.0 | 12.9 | 0.00 | 0.15 | 0.00 | 37 | 1016.1 |
| 20260901133828 | 26 | 21 | 0.0 | 9.7 | 0.00 | 0.15 | 0.00 | 38 | 1016.1 |
| 20260901133327 | 26 | 8 | 3.2 | 11.3 | 0.00 | 0.15 | 0.00 | 40 | 1016.2 |
| 20260901132827 | 25 | 354 | 8.0 | 11.3 | 0.00 | 0.15 | 0.00 | 41 | 1016.3 |
| 20260901132327 | 25 | 12 | 1.6 | 16.1 | 0.00 | 0.15 | 0.00 | 41 | 1016.3 |
| 20260901131827 | 25 | 105 | 1.6 | 6.4 | 0.00 | 0.15 | 0.00 | 43 | 1016.3 |
| 20260901131326 | 25 | 22 | 0.0 | 6.4 | 0.00 | 0.15 | 0.00 | 45 | 1016.3 |
| 20260901130826 | 25 | 327 | 0.0 | 11.3 | 0.00 | 0.15 | 0.00 | 44 | 1016.3 |
| 20260901130326 | 25 | 118 | 4.8 | 8.0 | 0.00 | 0.15 | 0.00 | 43 | 1016.4 |
| 20260901125825 | 25 | 68 | 0.0 | 8.0 | 0.00 | 0.15 | 0.00 | 44 | 1016.4 |
| 20260901125325 | 24 | 73 | 0.0 | 3.2 | 0.00 | 0.15 | 0.00 | 47 | 1016.5 |
| 20260901124825 | 24 | 90 | 0.0 | 3.2 | 0.00 | 0.15 | 0.00 | 48 | 1016.5 |
| 20260901124325 | 24 | 40 | 1.6 | 9.7 | 0.00 | 0.15 | 0.00 | 47 | 1016.5 |
| 20260901123824 | 24 | 106 | 0.0 | 12.9 | 0.00 | 0.15 | 0.00 | 47 | 1016.6 |
| 20260901123324 | 24 | 101 | 3.2 | 12.9 | 0.00 | 0.15 | 0.00 | 47 | 1016.6 |
| 20260901122824 | 24 | 97 | 3.2 | 8.0 | 0.00 | 0.15 | 0.00 | 47 | 1016.6 |
| 20260901122323 | 25 | 127 | 6.4 | 6.4 | 0.00 | 0.15 | 0.00 | 47 | 1016.6 |
| 20260901121823 | 25 | 315 | 3.2 | 6.4 | 0.00 | 0.15 | 0.00 | 47 | 1016.7 |
| 20260901121323 | 25 | 313 | 0.0 | 3.2 | 0.00 | 0.15 | 0.00 | 47 | 1016.6 |
| 20260901120823 | 26 | 226 | 3.2 | 11.3 | 0.00 | 0.15 | 0.00 | 46 | 1016.7 |
| 20260901120322 | 26 | 198 | 4.8 | 12.9 | 0.00 | 0.15 | 0.00 | 45 | 1016.7 |
| 20260901115822 | 26 | 309 | 4.8 | 9.7 | 0.00 | 0.15 | 0.00 | 44 | 1016.7 |
| 20260901115322 | 26 | 324 | 3.2 | 11.3 | 0.00 | 0.15 | 0.00 | 44 | 1016.7 |
| 20260901114821 | 26 | 306 | 1.6 | 9.7 | 0.00 | 0.15 | 0.00 | 44 | 1016.8 |
| 20260901114321 | 26 | 153 | 3.2 | 12.9 | 0.00 | 0.15 | 0.00 | 47 | 1016.8 |
| 20260901113821 | 26 | 92 | 8.0 | 14.5 | 0.00 | 0.15 | 0.00 | 45 | 1016.8 |
| 20260901113321 | 26 | 282 | 4.8 | 9.7 | 0.00 | 0.15 | 0.00 | 46 | 1016.8 |
| 20260901112820 | 26 | 300 | 1.6 | 8.0 | 0.00 | 0.15 | 0.00 | 47 | 1016.7 |
| 20260901112320 | 25 | 105 | 1.6 | 8.0 | 0.00 | 0.15 | 0.00 | 49 | 1016.8 |
| 20260901111820 | 25 | 95 | 6.4 | 12.9 | 0.00 | 0.15 | 0.00 | 50 | 1016.9 |
| 20260901111319 | 25 | 323 | 3.2 | 11.3 | 0.00 | 0.15 | 0.00 | 50 | 1016.9 |
| 20260901110819 | 25 | 78 | 3.2 | 9.7 | 0.00 | 0.15 | 0.00 | 50 | 1016.9 |
| 20260901110319 | 25 | 358 | 4.8 | 11.3 | 0.00 | 0.15 | 0.00 | 51 | 1016.9 |
| 20260901105819 | 24 | 340 | 8.0 | 16.1 | 0.00 | 0.15 | 0.00 | 52 | 1016.9 |
| 20260901105318 | 25 | 312 | 3.2 | 14.5 | 0.00 | 0.15 | 0.00 | 51 | 1017.0 |
| 20260901104818 | 25 | 355 | 4.8 | 8.0 | 0.00 | 0.15 | 0.00 | 52 | 1016.9 |
| 20260901104318 | 24 | 289 | 6.4 | 9.7 | 0.00 | 0.15 | 0.00 | 55 | 1017.0 |
| 20260901103818 | 23 | 285 | 0.0 | 9.7 | 0.00 | 0.15 | 0.00 | 56 | 1016.9 |
| 20260901103317 | 23 | 244 | 1.6 | 11.3 | 0.00 | 0.15 | 0.00 | 56 | 1016.9 |
| 20260901102817 | 23 | 347 | 1.6 | 12.9 | 0.00 | 0.15 | 0.00 | 57 | 1017.0 |
| 20260901102317 | 22 | 326 | 4.8 | 12.9 | 0.00 | 0.15 | 0.00 | 56 | 1017.2 |
| 20260901101816 | 22 | 49 | 1.6 | 12.9 | 0.00 | 0.15 | 0.00 | 59 | 1017.2 |
| 20260901101316 | 22 | 275 | 1.6 | 9.7 | 0.00 | 0.15 | 0.00 | 60 | 1017.2 |
| 20260901100816 | 22 | 133 | 0.0 | 9.7 | 0.00 | 0.15 | 0.00 | 62 | 1017.2 |
| 20260901100316 | 21 | 351 | 6.4 | 14.5 | 0.00 | 0.15 | 0.00 | 62 | 1017.3 |
| 20260901095815 | 21 | 322 | 8.0 | 14.5 | 0.00 | 0.15 | 0.00 | 63 | 1017.3 |
| 20260901095315 | 21 | 299 | 4.8 | 11.3 | 0.00 | 0.15 | 0.00 | 64 | 1017.2 |
| 20260901094815 | 21 | 14 | 1.6 | 9.7 | 0.00 | 0.15 | 0.00 | 64 | 1017.3 |
| 20260901094314 | 21 | 19 | 3.2 | 8.0 | 0.00 | 0.15 | 0.00 | 64 | 1017.3 |
| 20260901093815 | 21 | 22 | 6.4 | 11.3 | 0.00 | 0.15 | 0.00 | 64 | 1017.3 |
| 20260901093314 | 20 | 251 | 3.2 | 9.7 | 0.00 | 0.15 | 0.00 | 66 | 1017.3 |
| 20260901092814 | 20 | 329 | 1.6 | 11.3 | 0.00 | 0.15 | 0.00 | 66 | 1017.4 |
| 20260901092313 | 20 | 358 | 4.8 | 11.3 | 0.00 | 0.15 | 0.00 | 66 | 1017.4 |
| 20260901091813 | 20 | 101 | 3.2 | 12.9 | 0.00 | 0.15 | 0.00 | 67 | 1017.5 |
| 20260901091313 | 20 | 355 | 6.4 | 9.7 | 0.00 | 0.15 | 0.00 | 68 | 1017.4 |
| 20260901090812 | 20 | 220 | 1.6 | 6.4 | 0.00 | 0.15 | 0.00 | 69 | 1017.4 |
| 20260901090312 | 20 | 19 | 0.0 | 9.7 | 0.00 | 0.15 | 0.00 | 69 | 1017.4 |
| 20260901085812 | 20 | 271 | 3.2 | 9.7 | 0.00 | 0.15 | 0.00 | 71 | 1017.4 |
| 20260901085312 | 19 | 338 | 6.4 | 9.7 | 0.00 | 0.15 | 0.00 | 72 | 1017.4 |
| 20260901084811 | 19 | 303 | 1.6 | 9.7 | 0.00 | 0.15 | 0.00 | 71 | 1017.5 |
| 20260901084311 | 19 | 307 | 1.6 | 8.0 | 0.00 | 0.15 | 0.00 | 72 | 1017.5 |
| 20260901083811 | 19 | 333 | 4.8 | 11.3 | 0.00 | 0.15 | 0.00 | 73 | 1017.5 |
| 20260901083310 | 18 | 52 | 0.0 | 8.0 | 0.00 | 0.15 | 0.00 | 73 | 1017.4 |
| 20260901082810 | 18 | 345 | 6.4 | 6.4 | 0.00 | 0.15 | 0.00 | 73 | 1017.4 |
| 20260901082310 | 18 | 12 | 1.6 | 8.0 | 0.00 | 0.15 | 0.00 | 74 | 1017.5 |
| 20260901081810 | 18 | 35 | 0.0 | 11.3 | 0.00 | 0.15 | 0.00 | 75 | 1017.5 |
| 20260901081309 | 18 | 341 | 4.8 | 9.7 | 0.00 | 0.15 | 0.00 | 75 | 1017.4 |
| 20260901080809 | 18 | 15 | 1.6 | 11.3 | 0.00 | 0.15 | 0.00 | 76 | 1017.4 |
| 20260901080309 | 18 | 151 | 1.6 | 9.7 | 0.00 | 0.15 | 0.00 | 76 | 1017.4 |
| 20260901075808 | 18 | 347 | 4.8 | 8.0 | 0.00 | 0.15 | 0.00 | 75 | 1017.3 |
| 20260901075308 | 18 | 296 | 0.0 | 9.7 | 0.00 | 0.15 | 0.00 | 75 | 1017.3 |
| 20260901074808 | 18 | 315 | 4.8 | 8.0 | 0.00 | 0.15 | 0.00 | 76 | 1017.4 |
| 20260901074308 | 18 | 127 | 0.0 | 11.3 | 0.00 | 0.15 | 0.00 | 76 | 1017.3 |
| 20260901073807 | 17 | 21 | 3.2 | 6.4 | 0.00 | 0.15 | 0.00 | 77 | 1017.2 |
| 20260901073307 | 17 | 5 | 4.8 | 8.0 | 0.00 | 0.15 | 0.00 | 77 | 1017.2 |
| 20260901072807 | 17 | 299 | 3.2 | 8.0 | 0.00 | 0.15 | 0.00 | 77 | 1017.2 |
| 20260901072309 | 17 | 184 | 0.0 | 8.0 | 0.00 | 0.15 | 0.00 | 78 | 1017.1 |
| 20260901071806 | 17 | 329 | 3.2 | 11.3 | 0.00 | 0.15 | 0.00 | 77 | 1017.2 |
| 20260901071306 | 17 | 302 | 1.6 | 9.7 | 0.00 | 0.15 | 0.00 | 78 | 1017.1 |
| 20260901070806 | 17 | 285 | 1.6 | 8.0 | 0.00 | 0.15 | 0.00 | 79 | 1017.1 |
| 20260901070305 | 17 | 354 | 0.0 | 8.0 | 0.00 | 0.15 | 0.00 | 80 | 1017.1 |
| 20260901065805 | 17 | 30 | 0.0 | 6.4 | 0.00 | 0.15 | 0.00 | 80 | 1017.1 |
| 20260901065306 | 17 | 331 | 4.8 | 8.0 | 0.00 | 0.15 | 0.00 | 80 | 1017.2 |
| 20260901064804 | 17 | 23 | 3.2 | 8.0 | 0.00 | 0.15 | 0.00 | 81 | 1017.2 |
| 20260901064304 | 17 | 324 | 0.0 | 8.0 | 0.00 | 0.15 | 0.00 | 81 | 1017.0 |
| 20260901063804 | 16 | 320 | 4.8 | 6.4 | 0.00 | 0.15 | 0.00 | 82 | 1017.1 |
| 20260901063304 | 16 | 4 | 1.6 | 8.0 | 0.00 | 0.15 | 0.00 | 82 | 1017.0 |
| 20260901062803 | 16 | 347 | 4.8 | 4.8 | 0.00 | 0.15 | 0.00 | 82 | 1017.0 |
| 20260901062309 | 16 | 1 | 1.6 | 6.4 | 0.00 | 0.15 | 0.00 | 82 | 1017.0 |
| 20260901061803 | 16 | 357 | 0.0 | 6.4 | 0.00 | 0.15 | 0.00 | 82 | 1016.9 |
| 20260901061302 | 16 | 309 | 3.2 | 6.4 | 0.00 | 0.15 | 0.00 | 81 | 1016.9 |
| 20260901060802 | 16 | 23 | 0.0 | 8.0 | 0.00 | 0.15 | 0.00 | 81 | 1016.9 |
| 20260901060302 | 16 | 14 | 0.0 | 1.6 | 0.00 | 0.15 | 0.00 | 80 | 1016.8 |
| 20260901055802 | 16 | 358 | 0.0 | 4.8 | 0.00 | 0.15 | 0.00 | 80 | 1016.7 |
| 20260901055301 | 17 | 11 | 0.0 | 6.4 | 0.00 | 0.15 | 0.00 | 79 | 1016.8 |
| 20260901054801 | 17 | 11 | 0.0 | 4.8 | 0.00 | 0.15 | 0.00 | 78 | 1016.8 |
| 20260901054301 | 17 | 336 | 1.6 | 1.6 | 0.00 | 0.15 | 0.00 | 78 | 1016.7 |
| 20260901053800 | 17 | 212 | 0.0 | 0.0 | 0.00 | 0.15 | 0.00 | 78 | 1016.7 |
| 20260901053300 | 17 | 21 | 0.0 | 0.0 | 0.00 | 0.15 | 0.00 | 78 | 1016.6 |
| 20260901052800 | 17 | 21 | 0.0 | 0.0 | 0.00 | 0.15 | 0.00 | 79 | 1016.5 |
| 20260901052300 | 17 | 21 | 0.0 | 0.0 | 0.00 | 0.15 | 0.00 | 80 | 1016.5 |
| 20260901051759 | 17 | 21 | 0.0 | 0.0 | 0.00 | 0.15 | 0.00 | 81 | 1016.5 |
| 20260901051259 | 17 | 21 | 0.0 | 3.2 | 0.00 | 0.15 | 0.00 | 81 | 1016.5 |
| 20260901050759 | 17 | 355 | 0.0 | 1.6 | 0.00 | 0.15 | 0.00 | 82 | 1016.6 |
| 20260901050258 | 16 | 73 | 0.0 | 0.0 | 0.00 | 0.15 | 0.00 | 82 | 1016.6 |
| 20260901045758 | 16 | 73 | 0.0 | 0.0 | 0.00 | 0.15 | 0.00 | 82 | 1016.6 |
| 20260901045258 | 16 | 73 | 0.0 | 0.0 | 0.00 | 0.15 | 0.00 | 82 | 1016.6 |
| 20260901044758 | 16 | 73 | 0.0 | 0.0 | 0.00 | 0.15 | 0.00 | 82 | 1016.6 |
| 20260901044257 | 16 | 73 | 0.0 | 0.0 | 0.00 | 0.15 | 0.00 | 82 | 1016.5 |
| 20260901043757 | 16 | 73 | 0.0 | 0.0 | 0.00 | 0.15 | 0.00 | 82 | 1016.6 |
| 20260901043257 | 16 | 73 | 0.0 | 0.0 | 0.00 | 0.15 | 0.00 | 82 | 1016.5 |
| 20260901042757 | 16 | 73 | 0.0 | 0.0 | 0.00 | 0.15 | 0.00 | 82 | 1016.5 |
| 20260901042256 | 16 | 73 | 0.0 | 0.0 | 0.00 | 0.15 | 0.00 | 82 | 1016.4 |
| 20260901041756 | 16 | 66 | 0.0 | 1.6 | 0.00 | 0.15 | 0.00 | 81 | 1016.4 |
| 20260901041256 | 16 | 18 | 0.0 | 0.0 | 0.00 | 0.15 | 0.00 | 81 | 1016.4 |
| 20260901040755 | 16 | 18 | 0.0 | 0.0 | 0.00 | 0.15 | 0.00 | 81 | 1016.4 |
| 20260901040255 | 16 | 345 | 0.0 | 0.0 | 0.00 | 0.15 | 0.00 | 81 | 1016.4 |
| 20260901035755 | 16 | 345 | 0.0 | 0.0 | 0.00 | 0.15 | 0.00 | 81 | 1016.4 |
| 20260901035255 | 16 | 345 | 0.0 | 0.0 | 0.00 | 0.15 | 0.00 | 81 | 1016.4 |
| 20260901034754 | 16 | 345 | 0.0 | 0.0 | 0.00 | 0.15 | 0.00 | 81 | 1016.4 |